SQ7RAF-15 Weather Reports


time (UTC)temp
C
wind
direction
speed
KPH
gust
KPH
rain 1hr
cm
rain 24hr
cm
rain mn
cm
humidity
%
barometer
mb
20260508075519 10 315 3.2 9.7 0.00 0.00 0.00 85 1017.4
20260508075033 10 321 1.6 4.8 0.00 0.00 0.00 85 1017.5
20260508074543 9 320 3.2 4.8 0.00 0.00 0.00 86 1017.5
20260508074025 9 318 3.2 8.0 0.00 0.00 0.00 86 1017.5
20260508073536 9 332 3.2 3.2 0.00 0.00 0.00 87 1017.4
20260508073048 9 336 3.2 4.8 0.00 0.00 0.00 87 1017.5
20260508072527 8 314 3.2 4.8 0.00 0.00 0.00 87 1017.5
20260508072040 8 336 1.6 3.2 0.00 0.00 0.00 87 1017.4
20260508071520 8 325 1.6 4.8 0.00 0.00 0.00 87 1017.5
20260508071032 8 332 3.2 4.8 0.00 0.00 0.00 87 1017.4
20260508070544 8 317 3.2 4.8 0.00 0.00 0.00 87 1017.5
20260508070024 8 330 1.6 4.8 0.00 0.00 0.00 87 1017.4
20260508065536 8 319 1.6 3.2 0.00 0.00 0.00 87 1017.3
20260508065048 9 320 1.6 3.2 0.00 0.00 0.00 87 1017.3
20260508064529 8 326 1.6 4.8 0.00 0.00 0.00 87 1017.2
20260508064040 8 319 1.6 4.8 0.00 0.00 0.00 88 1017.2
20260508063521 8 325 1.6 3.2 0.00 0.00 0.00 88 1017.1
20260508063031 8 324 3.2 8.0 0.00 0.00 0.00 88 1017.2
20260508062528 8 331 1.6 3.2 0.00 0.00 0.00 88 1017.2
20260508062040 8 327 1.6 4.8 0.00 0.00 0.00 89 1017.1
20260508061520 8 307 1.6 3.2 0.00 0.00 0.00 89 1017.0
20260508061032 8 326 1.6 4.8 0.00 0.00 0.00 89 1017.0
20260508060544 8 319 1.6 3.2 0.00 0.00 0.00 89 1017.0
20260508060024 8 329 1.6 4.8 0.00 0.05 0.00 89 1016.9
20260508055536 8 324 1.6 8.0 0.00 0.05 0.00 89 1016.8
20260508055048 8 319 1.6 3.2 0.00 0.05 0.00 90 1016.8
20260508054528 8 325 1.6 3.2 0.00 0.05 0.00 90 1016.9
20260508054040 8 314 1.6 4.8 0.00 0.05 0.00 91 1016.8
20260508053519 8 335 1.6 3.2 0.00 0.05 0.00 91 1016.8
20260508053032 8 331 1.6 4.8 0.00 0.05 0.00 91 1016.8
20260508052544 8 327 1.6 3.2 0.00 0.05 0.00 91 1016.9
20260508052024 8 327 1.6 4.8 0.00 0.05 0.00 92 1016.8
20260508051536 8 328 1.6 4.8 0.00 0.05 0.00 92 1016.8
20260508051048 8 326 1.6 4.8 0.00 0.08 0.00 92 1016.9
20260508050528 8 322 3.2 9.7 0.00 0.10 0.00 92 1016.8
20260508050040 8 325 0.0 1.6 0.00 0.23 0.00 92 1016.8
20260508045520 7 333 1.6 4.8 0.00 0.28 0.00 92 1016.7
20260508045032 7 326 3.2 4.8 0.00 0.30 0.00 92 1016.8
20260508044024 7 319 1.6 3.2 0.00 0.30 0.00 92 1016.9
20260508043536 7 322 1.6 4.8 0.00 0.30 0.00 92 1016.8
20260508043048 7 324 3.2 4.8 0.00 0.30 0.00 92 1016.7
20260508042528 7 319 1.6 3.2 0.00 0.30 0.00 93 1016.7
20260508042040 7 330 1.6 3.2 0.00 0.30 0.00 93 1016.7
20260508041520 7 327 1.6 4.8 0.00 0.30 0.00 93 1016.6
20260508041032 7 320 3.2 4.8 0.00 0.30 0.00 93 1016.6
20260508040544 7 329 1.6 3.2 0.00 0.30 0.00 93 1016.4
20260508040024 7 327 1.6 1.6 0.00 0.30 0.00 93 1016.5
20260508035536 7 321 0.0 1.6 0.00 0.30 0.00 93 1016.3
20260508035048 7 333 0.0 1.6 0.00 0.30 0.00 93 1016.4
20260508034528 7 323 0.0 1.6 0.00 0.30 0.00 93 1016.2
20260508034040 7 331 1.6 1.6 0.00 0.30 0.00 93 1016.1
20260508033520 7 328 0.0 1.6 0.00 0.30 0.00 93 1016.2
20260508033032 7 323 1.6 3.2 0.00 0.30 0.00 93 1016.2
20260508032544 7 347 0.0 1.6 0.00 0.30 0.00 93 1016.1
20260508032024 7 327 1.6 3.2 0.00 0.30 0.00 93 1016.3
20260508031536 7 331 1.6 3.2 0.00 0.30 0.00 92 1016.2
20260508031048 7 329 0.0 1.6 0.00 0.30 0.00 92 1016.2
20260508030528 7 333 1.6 4.8 0.00 0.30 0.00 92 1016.1
20260508030040 7 320 1.6 4.8 0.00 0.30 0.00 92 1016.1
20260508025520 7 333 1.6 3.2 0.00 0.30 0.00 92 1016.0
20260508025032 7 318 1.6 4.8 0.00 0.30 0.00 92 1015.9
20260508024544 7 325 1.6 4.8 0.00 0.30 0.00 92 1016.0
20260508024024 7 318 3.2 4.8 0.00 0.33 0.00 91 1016.0
20260508023536 7 325 1.6 4.8 0.00 0.33 0.00 91 1016.0
20260508023048 7 325 3.2 8.0 0.00 0.33 0.00 91 1016.0
20260508022528 7 327 1.6 8.0 0.00 0.33 0.00 91 1016.0
20260508022040 7 316 1.6 3.2 0.00 0.33 0.00 91 1015.9
20260508021520 7 327 3.2 8.0 0.00 0.33 0.00 91 1016.0
20260508021031 7 311 3.2 8.0 0.00 0.33 0.00 91 1015.9
20260508020545 7 325 1.6 3.2 0.00 0.33 0.00 91 1016.0
20260508020023 8 316 1.6 4.8 0.00 0.33 0.00 91 1016.0
20260508015537 8 326 1.6 4.8 0.00 0.33 0.00 91 1016.1
20260508015034 8 328 1.6 4.8 0.00 0.33 0.00 91 1016.0
20260508014544 8 307 1.6 8.0 0.00 0.33 0.00 91 1015.8
20260508014025 8 322 1.6 3.2 0.00 0.33 0.00 91 1015.8
20260508013536 8 324 3.2 8.0 0.00 0.33 0.00 91 1015.8
20260508013048 8 333 3.2 4.8 0.00 0.33 0.00 91 1015.8
20260508012528 8 316 3.2 4.8 0.00 0.33 0.00 91 1015.8
20260508012040 8 323 1.6 8.0 0.00 0.33 0.00 91 1015.8
20260508011520 8 321 1.6 4.8 0.00 0.33 0.00 91 1015.7
20260508011032 8 328 3.2 9.7 0.00 0.33 0.00 90 1015.8
20260508010544 8 327 3.2 9.7 0.00 0.33 0.00 90 1015.9
20260508010024 8 326 3.2 9.7 0.00 0.33 0.00 91 1015.9
20260508005536 8 322 3.2 9.7 0.00 0.33 0.00 91 1016.0
20260508005048 8 312 3.2 11.3 0.00 0.33 0.00 91 1016.0
20260508004528 8 322 3.2 9.7 0.00 0.33 0.00 91 1016.0
20260508004040 8 317 3.2 8.0 0.00 0.33 0.00 91 1015.8
20260508003519 8 329 1.6 4.8 0.00 0.33 0.00 91 1015.9
20260508003032 8 324 3.2 8.0 0.00 0.33 0.00 91 1015.9
20260508002544 8 321 3.2 4.8 0.00 0.33 0.00 92 1015.9
20260508002024 8 320 3.2 8.0 0.00 0.33 0.00 92 1015.8
20260508001536 8 318 3.2 8.0 0.00 0.33 0.00 92 1015.7
20260508001047 8 331 1.6 4.8 0.00 0.33 0.00 92 1015.7
20260508000528 8 322 1.6 4.8 0.00 0.33 0.00 92 1015.8
20260508000040 8 333 1.6 3.2 0.00 0.33 0.00 92 1015.8
20260507235519 8 329 1.6 8.0 0.00 0.33 0.00 92 1015.8
20260507235031 8 327 1.6 4.8 0.00 0.33 0.00 92 1015.7
20260507234543 8 320 1.6 3.2 0.00 0.33 0.00 92 1015.7
20260507234023 8 327 1.6 3.2 0.00 0.33 0.00 92 1015.7
20260507233536 9 327 0.0 1.6 0.00 0.33 0.00 92 1015.7
20260507233048 8 324 1.6 3.2 0.00 0.33 0.00 92 1015.8
20260507232528 8 320 1.6 4.8 0.00 0.33 0.00 92 1015.6
20260507232039 8 327 1.6 3.2 0.00 0.33 0.00 93 1015.7
20260507231520 8 319 1.6 3.2 0.00 0.33 0.00 93 1015.6
20260507231032 8 323 1.6 4.8 0.00 0.33 0.00 93 1015.7
20260507230528 8 324 1.6 3.2 0.00 0.33 0.00 93 1015.7
20260507230040 9 326 1.6 1.6 0.00 0.33 0.00 93 1015.6
20260507225520 9 321 1.6 4.8 0.00 0.36 0.00 93 1015.6
20260507225032 9 329 1.6 8.0 0.00 0.38 0.00 93 1015.7
20260507224544 9 325 0.0 1.6 0.00 0.38 0.00 93 1015.6
20260507224024 9 322 1.6 3.2 0.00 0.38 0.00 93 1015.6
20260507223536 9 333 1.6 4.8 0.00 0.38 0.00 93 1015.6
20260507223016 9 347 1.6 8.0 0.00 0.38 0.00 93 1015.5
20260507222528 9 332 1.6 8.0 0.00 0.43 0.00 93 1015.5
20260507222040 9 328 1.6 4.8 0.00 0.43 0.00 93 1015.5
20260507221519 9 326 1.6 3.2 0.00 0.43 0.00 93 1015.4
20260507221032 9 326 1.6 3.2 0.00 0.43 0.00 93 1015.3
20260507220545 9 327 1.6 4.8 0.00 0.43 0.00 93 1015.3
20260507220024 9 324 1.6 1.6 0.00 0.43 0.00 93 1015.5
20260507215520 9 323 0.0 1.6 0.00 0.46 0.46 93 1015.4
20260507215033 9 327 1.6 3.2 0.00 0.46 0.46 93 1015.4
20260507214544 9 319 1.6 4.8 0.00 0.46 0.46 93 1015.3
20260507214024 9 318 0.0 1.6 0.00 0.48 0.46 93 1015.2
20260507213536 9 327 1.6 3.2 0.00 0.48 0.46 93 1015.2
20260507213015 9 327 0.0 3.2 0.00 0.51 0.46 93 1015.1
20260507212528 9 325 1.6 3.2 0.00 0.56 0.46 93 1015.2
20260507212039 9 329 1.6 3.2 0.00 0.56 0.46 93 1015.2
20260507211519 9 323 0.0 1.6 0.00 0.56 0.46 93 1015.2
20260507211032 9 339 0.0 1.6 0.00 0.56 0.46 93 1015.1
20260507210545 9 325 1.6 4.8 0.00 0.56 0.46 93 1015.0
20260507210024 9 318 1.6 3.2 0.00 0.56 0.46 93 1015.0
20260507205536 9 328 1.6 4.8 0.00 0.56 0.46 93 1015.1
20260507205016 9 318 1.6 3.2 0.00 0.56 0.46 93 1015.0
20260507204528 10 330 1.6 3.2 0.00 0.56 0.46 93 1015.1
20260507204039 9 326 0.0 3.2 0.00 0.56 0.46 93 1015.2
20260507203520 9 318 3.2 4.8 0.00 0.56 0.46 93 1015.2
20260507203031 9 327 1.6 3.2 0.00 0.56 0.46 94 1015.1
20260507202544 9 324 1.6 3.2 0.00 0.56 0.46 94 1015.1
20260507202023 10 327 1.6 4.8 0.00 0.56 0.46 94 1015.0
20260507201536 10 322 1.6 4.8 0.00 0.56 0.46 94 1014.9
20260507201016 10 325 1.6 4.8 0.00 0.56 0.46 94 1014.9
20260507200527 10 322 1.6 4.8 0.00 0.56 0.46 94 1014.9
20260507200041 10 320 1.6 4.8 0.00 0.56 0.46 94 1014.8
20260507195538 10 319 1.6 8.0 0.00 0.56 0.46 94 1014.8
20260507195015 10 324 1.6 3.2 0.00 0.56 0.46 94 1014.8
20260507194528 10 321 3.2 8.0 0.00 0.56 0.46 94 1014.7
20260507194040 10 309 1.6 8.0 0.00 0.56 0.46 94 1014.6
20260507193521 10 323 1.6 3.2 0.00 0.56 0.46 94 1014.6
20260507193032 10 319 1.6 4.8 0.00 0.56 0.46 94 1014.6
20260507192528 10 324 3.2 8.0 0.00 0.56 0.46 94 1014.5
20260507192039 10 317 1.6 4.8 0.00 0.56 0.46 94 1014.4
20260507191520 10 324 1.6 3.2 0.00 0.56 0.46 93 1014.3
20260507191031 10 328 1.6 4.8 0.00 0.56 0.46 93 1014.2
20260507190545 10 328 1.6 4.8 0.00 0.56 0.46 93 1014.2
20260507190024 10 324 1.6 4.8 0.00 0.56 0.46 93 1014.1
20260507185536 10 318 3.2 9.7 0.00 0.56 0.46 93 1014.1
20260507185016 10 332 3.2 11.3 0.00 0.56 0.46 93 1014.1
20260507184529 10 325 1.6 3.2 0.00 0.56 0.46 93 1014.0
20260507184040 10 320 1.6 4.8 0.00 0.56 0.46 93 1014.0
20260507183520 10 321 1.6 4.8 0.00 0.56 0.46 93 1013.9
20260507183016 10 320 3.2 4.8 0.00 0.56 0.46 92 1013.7
20260507182528 10 323 3.2 4.8 0.00 0.56 0.46 92 1013.8
20260507182039 10 305 3.2 4.8 0.00 0.56 0.46 92 1013.7
20260507181519 10 329 1.6 4.8 0.00 0.56 0.46 92 1013.7
20260507181031 10 328 0.0 1.6 0.00 0.56 0.46 92 1013.6
20260507180543 10 318 1.6 4.8 0.00 0.56 0.46 92 1013.6
20260507180024 11 319 3.2 8.0 0.00 0.56 0.46 91 1013.3
20260507175537 11 341 3.2 4.8 0.00 0.56 0.46 91 1013.3
20260507175016 11 323 1.6 8.0 0.00 0.56 0.46 91 1013.3
20260507174528 11 330 1.6 3.2 0.00 0.56 0.46 91 1013.2
20260507174040 11 326 1.6 4.8 0.00 0.56 0.46 91 1013.2
20260507173032 11 325 1.6 4.8 0.00 0.56 0.46 91 1013.1
20260507172544 11 314 1.6 3.2 0.00 0.56 0.46 90 1013.2
20260507172023 11 324 1.6 3.2 0.00 0.56 0.46 90 1013.1
20260507171522 11 325 1.6 3.2 0.00 0.56 0.46 90 1013.0
20260507171031 11 319 1.6 4.8 0.00 0.56 0.46 90 1013.0
20260507170547 11 318 1.6 4.8 0.00 0.56 0.46 90 1012.8
20260507170023 11 321 1.6 4.8 0.00 0.56 0.46 90 1012.7
20260507165535 11 317 1.6 4.8 0.00 0.56 0.46 90 1012.7
20260507165016 11 316 1.6 4.8 0.00 0.56 0.46 90 1012.7
20260507164527 11 324 1.6 3.2 0.00 0.56 0.46 90 1012.6
20260507164039 11 319 1.6 3.2 0.00 0.56 0.46 90 1012.6
20260507163519 11 342 1.6 4.8 0.00 0.56 0.46 90 1012.5
20260507163032 12 324 3.2 8.0 0.00 0.56 0.46 90 1012.4
20260507162544 12 332 3.2 8.0 0.00 0.56 0.46 90 1012.5
20260507162024 12 329 1.6 4.8 0.00 0.56 0.46 90 1012.4
20260507161535 12 324 1.6 4.8 0.00 0.56 0.46 90 1012.5
20260507161032 12 311 3.2 8.0 0.00 0.56 0.46 89 1012.4
20260507160543 12 329 1.6 3.2 0.00 0.56 0.46 89 1012.3
20260507160023 12 317 3.2 9.7 0.00 0.56 0.46 89 1012.1
20260507155535 12 306 1.6 8.0 0.00 0.56 0.46 88 1012.2
20260507155016 12 325 1.6 4.8 0.00 0.56 0.46 88 1012.2
20260507154528 12 346 3.2 4.8 0.00 0.56 0.46 88 1012.1
20260507154039 13 315 3.2 8.0 0.00 0.56 0.46 88 1012.2
20260507152527 13 334 3.2 12.9 0.00 0.56 0.46 88 1012.1
20260507152024 13 323 4.8 9.7 0.00 0.56 0.46 88 1011.9
20260507151519 13 319 3.2 11.3 0.00 0.56 0.46 88 1011.9
20260507151032 13 328 4.8 8.0 0.00 0.56 0.46 87 1011.9
20260507150544 14 349 3.2 8.0 0.00 0.56 0.46 87 1011.8
20260507150041 14 347 3.2 4.8 0.00 0.56 0.46 86 1011.8
20260507145519 14 318 1.6 4.8 0.00 0.56 0.46 86 1011.8
20260507145033 15 325 3.2 9.7 0.00 0.56 0.46 86 1011.8
20260507144529 15 327 3.2 9.7 0.00 0.56 0.46 86 1011.8
20260507144039 14 315 3.2 9.7 0.00 0.56 0.46 86 1011.9
20260507143521 15 306 3.2 9.7 0.00 0.56 0.46 85 1011.7
20260507143032 15 322 3.2 9.7 0.00 0.56 0.46 86 1011.8
20260507142544 15 324 3.2 8.0 0.00 0.56 0.46 86 1011.9
20260507142023 15 305 3.2 11.3 0.00 0.56 0.46 86 1011.9
20260507141536 15 318 3.2 8.0 0.00 0.56 0.46 86 1011.7
20260507141016 15 309 4.8 11.3 0.00 0.56 0.46 87 1011.7
20260507140528 15 308 4.8 11.3 0.00 0.56 0.46 87 1011.6
20260507140024 14 321 3.2 11.3 0.00 0.56 0.46 88 1011.7
20260507135520 14 333 4.8 11.3 0.00 0.56 0.46 88 1011.7
20260507135032 14 325 3.2 8.0 0.00 0.56 0.46 88 1011.9
20260507134545 14 317 3.2 4.8 0.00 0.56 0.46 88 1011.9
20260507134023 14 328 3.2 8.0 0.00 0.56 0.46 87 1011.9
20260507133536 15 323 3.2 4.8 0.00 0.56 0.46 87 1012.0
20260507133016 15 327 3.2 4.8 0.00 0.56 0.46 87 1012.1
20260507132529 15 316 3.2 8.0 0.00 0.56 0.46 87 1012.1
20260507132040 15 325 3.2 8.0 0.00 0.56 0.46 87 1011.8
20260507131535 15 329 3.2 4.8 0.00 0.56 0.46 86 1011.9
20260507131017 15 318 1.6 8.0 0.00 0.56 0.46 86 1011.7
20260507130528 15 321 1.6 8.0 0.00 0.56 0.46 85 1011.7
20260507130039 15 341 1.6 8.0 0.00 0.56 0.46 85 1011.7
20260507125519 16 331 3.2 4.8 0.00 0.56 0.46 85 1011.7
20260507125031 15 321 1.6 8.0 0.00 0.56 0.46 84 1011.6
20260507124533 16 321 1.6 8.0 0.00 0.56 0.46 84 1011.5
20260507124039 16 329 1.6 3.2 0.00 0.56 0.46 83 1011.5
20260507123520 16 323 1.6 4.8 0.00 0.56 0.46 83 1011.5
20260507123031 16 326 1.6 3.2 0.00 0.56 0.46 84 1011.4
20260507122544 15 26 1.6 3.2 0.00 0.56 0.46 84 1011.4
20260507122024 15 330 1.6 4.8 0.00 0.56 0.46 86 1011.6
20260507121536 15 328 1.6 3.2 0.00 0.56 0.46 86 1011.5
20260507121016 15 322 1.6 4.8 0.00 0.56 0.46 86 1011.6
20260507120528 15 324 1.6 3.2 0.00 0.56 0.46 86 1011.6
20260507120040 15 327 1.6 3.2 0.00 0.56 0.46 86 1011.6
20260507115520 15 350 1.6 4.8 0.00 0.56 0.46 87 1011.7
20260507115032 14 354 0.0 3.2 0.00 0.56 0.46 88 1011.6
20260507114544 14 324 1.6 3.2 0.00 0.56 0.46 88 1011.6
20260507114024 14 335 0.0 3.2 0.00 0.56 0.46 87 1011.5
20260507113536 15 20 1.6 3.2 0.00 0.56 0.46 87 1011.6
20260507113016 15 342 1.6 3.2 0.00 0.56 0.46 88 1011.7
20260507112528 14 335 1.6 3.2 0.00 0.56 0.46 90 1011.7
20260507112040 13 325 1.6 8.0 0.00 0.56 0.46 91 1011.7
20260507111536 13 10 1.6 3.2 0.00 0.56 0.46 93 1011.8
20260507111016 13 24 1.6 3.2 0.00 0.56 0.46 94 1011.7
20260507110528 12 323 1.6 8.0 0.00 0.56 0.46 95 1011.6
20260507110040 13 328 1.6 4.8 0.00 0.56 0.46 96 1011.7
20260507105520 13 329 1.6 3.2 0.00 0.56 0.46 97 1011.5
20260507105032 12 81 1.6 3.2 0.00 0.56 0.46 97 1011.5
20260507104544 12 338 1.6 4.8 0.00 0.56 0.46 98 1011.4
20260507104024 12 27 1.6 4.8 0.00 0.56 0.46 98 1011.4
20260507103536 12 15 1.6 4.8 0.00 0.56 0.46 98 1011.3
20260507103017 12 321 1.6 1.6 0.00 0.56 0.46 98 1011.3
20260507102528 12 329 1.6 4.8 0.00 0.56 0.46 98 1011.3
20260507102026 12 357 0.0 3.2 0.00 0.56 0.46 98 1011.1
20260507101536 12 346 0.0 3.2 0.00 0.56 0.46 98 1011.1
20260507101016 12 59 1.6 4.8 0.00 0.56 0.46 98 1011.1
20260507100528 12 352 1.6 4.8 0.00 0.56 0.46 99 1010.9
20260507100040 11 49 3.2 4.8 0.00 0.56 0.46 98 1010.9
20260507095520 11 59 1.6 4.8 0.00 0.56 0.46 99 1010.9
20260507095032 12 358 1.6 4.8 0.00 0.56 0.46 99 1010.6
20260507094544 11 328 0.0 3.2 0.00 0.56 0.46 99 1010.7
20260507094024 11 328 1.6 4.8 0.00 0.56 0.46 99 1010.7
20260507093536 11 308 1.6 8.0 0.00 0.56 0.46 99 1010.8
20260507093016 11 317 1.6 4.8 0.00 0.56 0.46 99 1010.7
20260507092528 11 327 1.6 4.8 0.00 0.56 0.46 99 1010.7
20260507092040 11 321 1.6 3.2 0.00 0.56 0.46 99 1010.6
20260507091519 11 326 1.6 3.2 0.00 0.56 0.46 99 1010.6
20260507091032 11 318 1.6 3.2 0.00 0.56 0.46 99 1010.8
20260507090544 11 326 0.0 1.6 0.00 0.56 0.46 99 1010.6
20260507090024 11 324 0.0 3.2 0.00 0.56 0.46 99 1010.5
20260507085520 11 320 1.6 3.2 0.00 0.56 0.46 99 1010.4
20260507085032 11 334 1.6 3.2 0.00 0.56 0.46 99 1010.3
20260507084544 11 327 1.6 4.8 0.00 0.56 0.46 99 1010.3
20260507084024 11 340 3.2 4.8 0.00 0.56 0.46 99 1010.3
20260507083520 11 321 1.6 4.8 0.00 0.56 0.46 99 1010.1
20260507083032 11 326 1.6 4.8 0.00 0.56 0.46 99 1010.1
20260507082544 11 311 1.6 4.8 0.00 0.56 0.46 99 1009.9
20260507082024 11 325 1.6 4.8 0.00 0.56 0.46 99 1009.9
20260507081536 11 331 3.2 8.0 0.00 0.56 0.46 99 1009.9
20260507081032 11 317 3.2 4.8 0.00 0.56 0.46 99 1009.9
20260507080544 11 309 3.2 9.7 0.00 0.56 0.46 99 1009.9
20260507080033 11 328 3.2 4.8 0.00 0.56 0.46 99 1009.8
20260507075536 11 317 3.2 8.0 0.00 0.56 0.46 99 1009.8